BG4WDV-11 Weather Reports


time (UTC)temp
C
wind
direction
speed
KPH
gust
KPH
rain 1hr
cm
rain 24hr
cm
rain mn
cm
humidity
%
barometer
mb
20260505032737 30 0 1.6 9.7 0.00 0.00 0.00 43 1011.5
20260505032637 30 315 3.2 9.7 0.00 0.00 0.00 42 1011.6
20260505032537 30 0 1.6 9.7 0.00 0.00 0.00 42 1011.6
20260505032437 30 0 0.0 9.7 0.00 0.00 0.00 43 1011.7
20260505032337 30 225 0.0 9.7 0.00 0.00 0.00 43 1011.6
20260505032237 30 225 1.6 9.7 0.00 0.00 0.00 43 1011.5
20260505032137 30 225 4.8 9.7 0.00 0.00 0.00 43 1011.7
20260505032037 30 0 4.8 9.7 0.00 0.00 0.00 43 1011.7
20260505031937 30 45 1.6 8.0 0.00 0.00 0.00 43 1011.8
20260505031837 30 0 0.0 8.0 0.00 0.00 0.00 43 1011.8
20260505031737 30 225 0.0 8.0 0.00 0.00 0.00 43 1011.6
20260505031637 30 225 1.6 8.0 0.00 0.00 0.00 42 1011.5
20260505031537 30 225 3.2 8.0 0.00 0.00 0.00 42 1011.8
20260505031437 30 225 3.2 9.7 0.00 0.00 0.00 42 1011.7
20260505031337 30 0 4.8 9.7 0.00 0.00 0.00 41 1011.7
20260505031237 30 0 3.2 9.7 0.00 0.00 0.00 41 1011.7
20260505031137 30 45 1.6 9.7 0.00 0.00 0.00 41 1011.8
20260505031037 30 225 3.2 9.7 0.00 0.00 0.00 42 1011.8
20260505030937 30 225 3.2 9.7 0.00 0.00 0.00 41 1011.7
20260505030837 30 180 3.2 9.7 0.00 0.00 0.00 42 1011.7
20260505030737 30 0 3.2 9.7 0.00 0.00 0.00 41 1011.7
20260505030636 30 0 4.8 9.7 0.00 0.00 0.00 41 1011.8
20260505030537 30 45 3.2 9.7 0.00 0.00 0.00 41 1011.8
20260505030437 30 180 0.0 6.4 0.00 0.00 0.00 41 1012.0
20260505030337 30 0 0.0 6.4 0.00 0.00 0.00 40 1012.0
20260505030237 30 0 0.0 6.4 0.00 0.00 0.00 40 1011.8
20260505030137 30 0 3.2 6.4 0.00 0.00 0.00 39 1011.9
20260505025936 31 0 0.0 6.4 0.00 0.00 0.00 39 1012.0
20260505025837 31 225 0.0 6.4 0.00 0.00 0.00 39 1011.9
20260505025737 30 0 1.6 6.4 0.00 0.00 0.00 40 1011.8
20260505025636 30 0 0.0 8.0 0.00 0.00 0.00 39 1012.1
20260505025537 30 225 0.0 8.0 0.00 0.00 0.00 39 1011.9
20260505025437 30 0 0.0 8.0 0.00 0.00 0.00 39 1012.0
20260505025337 30 0 0.0 8.0 0.00 0.00 0.00 38 1011.9
20260505025236 30 225 1.6 8.0 0.00 0.00 0.00 38 1011.9
20260505025137 30 0 1.6 8.0 0.00 0.00 0.00 38 1012.0
20260505025037 30 0 0.0 8.0 0.00 0.00 0.00 38 1012.1
20260505024937 30 0 1.6 8.0 0.00 0.00 0.00 38 1012.0
20260505024837 30 225 3.2 8.0 0.00 0.00 0.00 37 1012.0
20260505024737 30 225 3.2 8.0 0.00 0.00 0.00 37 1012.1
20260505024637 30 0 3.2 6.4 0.00 0.00 0.00 37 1012.1
20260505024536 30 0 1.6 6.4 0.00 0.00 0.00 37 1012.1
20260505024437 30 180 0.0 6.4 0.00 0.00 0.00 38 1012.1
20260505024337 30 0 1.6 6.4 0.00 0.00 0.00 38 1012.2
20260505024236 30 0 1.6 6.4 0.00 0.00 0.00 38 1012.2
20260505024136 30 0 1.6 6.4 0.00 0.00 0.00 39 1012.2
20260505024037 30 0 1.6 6.4 0.00 0.00 0.00 39 1012.1
20260505023937 30 0 0.0 6.4 0.00 0.00 0.00 39 1012.3
20260505023836 30 180 1.6 6.4 0.00 0.00 0.00 39 1012.2
20260505023737 30 315 0.0 6.4 0.00 0.00 0.00 40 1012.2
20260505023637 29 0 0.0 6.4 0.00 0.00 0.00 39 1012.2
20260505023536 30 45 0.0 6.4 0.00 0.00 0.00 39 1012.3
20260505023436 30 225 1.6 6.4 0.00 0.00 0.00 40 1012.2
20260505023337 30 0 1.6 6.4 0.00 0.00 0.00 39 1012.2
20260505023237 30 0 1.6 6.4 0.00 0.00 0.00 40 1012.1
20260505023136 30 225 0.0 6.4 0.00 0.00 0.00 41 1012.3
20260505023037 30 180 0.0 6.4 0.00 0.00 0.00 42 1012.3
20260505022937 30 0 0.0 6.4 0.00 0.00 0.00 41 1012.1
20260505022837 29 0 0.0 6.4 0.00 0.00 0.00 41 1012.3
20260505022736 29 180 0.0 6.4 0.00 0.00 0.00 42 1012.1
20260505022637 28 225 0.0 6.4 0.00 0.00 0.00 42 1012.2
20260505022537 28 180 0.0 6.4 0.00 0.00 0.00 43 1012.2
20260505022437 28 180 1.6 6.4 0.00 0.00 0.00 43 1012.3
20260505022336 28 225 3.2 6.4 0.00 0.00 0.00 43 1012.3
20260505022237 28 225 1.6 6.4 0.00 0.00 0.00 44 1012.3
20260505022137 28 225 1.6 6.4 0.00 0.00 0.00 43 1012.2
20260505021937 28 0 0.0 6.4 0.00 0.00 0.00 43 1012.4
20260505021837 28 225 0.0 6.4 0.00 0.00 0.00 43 1012.3
20260505021737 28 0 1.6 6.4 0.00 0.00 0.00 43 1012.4
20260505021636 28 225 1.6 6.4 0.00 0.00 0.00 42 1012.3
20260505021537 28 225 1.6 6.4 0.00 0.00 0.00 42 1012.4
20260505021437 29 225 3.2 6.4 0.00 0.00 0.00 42 1012.4
20260505021336 29 225 1.6 6.4 0.00 0.00 0.00 43 1012.4
20260505021237 29 0 1.6 6.4 0.00 0.00 0.00 43 1012.3
20260505021137 29 0 3.2 6.4 0.00 0.00 0.00 43 1012.4
20260505021037 29 0 1.6 4.8 0.00 0.00 0.00 44 1012.4
20260505020936 29 0 0.0 6.4 0.00 0.00 0.00 44 1012.5
20260505020836 29 0 0.0 6.4 0.00 0.00 0.00 45 1012.4
20260505020737 28 225 0.0 6.4 0.00 0.00 0.00 45 1012.4
20260505020637 28 180 0.0 6.4 0.00 0.00 0.00 45 1012.4
20260505020536 28 180 0.0 6.4 0.00 0.00 0.00 45 1012.3
20260505020436 28 225 0.0 6.4 0.00 0.00 0.00 45 1012.3
20260505020337 28 0 1.6 6.4 0.00 0.00 0.00 47 1012.4
20260505020236 28 225 3.2 6.4 0.00 0.00 0.00 47 1012.4
20260505020136 28 180 1.6 6.4 0.00 0.00 0.00 47 1012.4
20260505020036 28 0 0.0 6.4 0.00 0.00 0.00 47 1012.2
20260505015937 28 0 0.0 4.8 0.00 0.00 0.00 46 1012.4
20260505015836 28 0 0.0 4.8 0.00 0.00 0.00 46 1012.3
20260505015736 28 225 0.0 4.8 0.00 0.00 0.00 46 1012.3
20260505015636 28 225 0.0 4.8 0.00 0.00 0.00 46 1012.4
20260505015537 28 225 0.0 4.8 0.00 0.00 0.00 46 1012.4
20260505015437 28 225 0.0 4.8 0.00 0.00 0.00 45 1012.3
20260505015337 28 225 0.0 4.8 0.00 0.00 0.00 45 1012.4
20260505015237 28 225 0.0 6.4 0.00 0.00 0.00 45 1012.4
20260505015137 28 225 0.0 6.4 0.00 0.00 0.00 45 1012.4
20260505015037 28 225 1.6 6.4 0.00 0.00 0.00 46 1012.3
20260505014937 28 225 0.0 6.4 0.00 0.00 0.00 47 1012.4
20260505014837 28 0 0.0 6.4 0.00 0.00 0.00 47 1012.5
20260505014737 27 225 0.0 6.4 0.00 0.00 0.00 47 1012.3
20260505014637 27 225 0.0 6.4 0.00 0.00 0.00 47 1012.3
20260505014537 27 225 1.6 6.4 0.00 0.00 0.00 48 1012.4
20260505014437 27 0 3.2 6.4 0.00 0.00 0.00 48 1012.3
20260505014337 27 180 3.2 6.4 0.00 0.00 0.00 48 1012.3
20260505014237 27 0 1.6 4.8 0.00 0.00 0.00 48 1012.4
20260505014136 27 180 0.0 4.8 0.00 0.00 0.00 48 1012.4
20260505014036 27 0 0.0 4.8 0.00 0.00 0.00 47 1012.4
20260505013937 27 225 0.0 4.8 0.00 0.00 0.00 47 1012.4
20260505013837 27 225 0.0 4.8 0.00 0.00 0.00 47 1012.4
20260505013736 27 180 0.0 4.8 0.00 0.00 0.00 47 1012.5
20260505013636 27 225 0.0 4.8 0.00 0.00 0.00 47 1012.2
20260505013536 27 0 0.0 4.8 0.00 0.00 0.00 48 1012.5
20260505013436 27 180 0.0 4.8 0.00 0.00 0.00 47 1012.4
20260505013336 27 180 0.0 4.8 0.00 0.00 0.00 48 1012.5
20260505013236 27 0 0.0 4.8 0.00 0.00 0.00 49 1012.4
20260505013136 27 225 0.0 4.8 0.00 0.00 0.00 49 1012.4
20260505013036 27 0 0.0 4.8 0.00 0.00 0.00 49 1012.4
20260505012937 27 180 0.0 4.8 0.00 0.00 0.00 48 1012.5
20260505012836 27 180 0.0 4.8 0.00 0.00 0.00 48 1012.5
20260505012736 27 225 0.0 4.8 0.00 0.00 0.00 49 1012.6
20260505012636 27 225 0.0 4.8 0.00 0.00 0.00 48 1012.4
20260505012536 27 225 0.0 4.8 0.00 0.00 0.00 48 1012.5
20260505012436 27 225 0.0 4.8 0.00 0.00 0.00 48 1012.6
20260505012336 27 225 0.0 4.8 0.00 0.00 0.00 48 1012.4
20260505012237 27 225 0.0 3.2 0.00 0.00 0.00 49 1012.5
20260505012137 27 0 0.0 3.2 0.00 0.00 0.00 49 1012.5
20260505012036 27 0 0.0 3.2 0.00 0.00 0.00 49 1012.4
20260505011936 27 0 0.0 3.2 0.00 0.00 0.00 50 1012.3
20260505011836 27 180 0.0 4.8 0.00 0.00 0.00 50 1012.4
20260505011737 27 180 0.0 4.8 0.00 0.00 0.00 50 1012.3
20260505011636 27 180 0.0 4.8 0.00 0.00 0.00 50 1012.4
20260505011536 27 180 0.0 4.8 0.00 0.00 0.00 51 1012.5
20260505011436 27 0 0.0 4.8 0.00 0.00 0.00 51 1012.4
20260505011336 27 180 0.0 4.8 0.00 0.00 0.00 52 1012.4
20260505011237 27 180 0.0 4.8 0.00 0.00 0.00 51 1012.5
20260505011136 26 180 0.0 4.8 0.00 0.00 0.00 51 1012.3
20260505011036 26 180 0.0 4.8 0.00 0.00 0.00 51 1012.4
20260505010936 26 0 1.6 4.8 0.00 0.00 0.00 51 1012.4
20260505010836 26 180 0.0 4.8 0.00 0.00 0.00 52 1012.4
20260505010636 26 0 0.0 3.2 0.00 0.00 0.00 52 1012.3
20260505010536 26 225 0.0 3.2 0.00 0.00 0.00 52 1012.5
20260505010437 26 0 3.2 0.0 0.00 0.00 0.00 53 1012.4
20260505010336 26 225 0.0 3.2 0.00 0.00 0.00 53 1012.4
20260505010236 26 0 0.0 3.2 0.00 0.00 0.00 53 1012.4
20260505010136 26 180 0.0 3.2 0.00 0.00 0.00 54 1012.3
20260505010036 25 225 0.0 4.8 0.00 0.00 0.00 55 1012.4
20260505005937 25 180 0.0 4.8 0.00 0.00 0.00 55 1012.5
20260505005836 25 0 0.0 4.8 0.00 0.00 0.00 55 1012.5
20260505005736 25 180 0.0 4.8 0.00 0.00 0.00 55 1012.3
20260505005636 25 180 0.0 4.8 0.00 0.00 0.00 55 1012.4
20260505005536 25 180 0.0 4.8 0.00 0.00 0.00 55 1012.6
20260505005436 25 180 0.0 4.8 0.00 0.00 0.00 55 1012.4
20260505005336 25 0 0.0 4.8 0.00 0.00 0.00 55 1012.4
20260505005236 25 180 0.0 4.8 0.00 0.00 0.00 55 1012.4
20260505005136 25 180 0.0 4.8 0.00 0.00 0.00 55 1012.4
20260505005036 25 180 0.0 4.8 0.00 0.00 0.00 55 1012.4
20260505004936 25 180 0.0 4.8 0.00 0.00 0.00 55 1012.4
20260505004836 25 0 0.0 4.8 0.00 0.00 0.00 55 1012.4
20260505004736 25 0 0.0 4.8 0.00 0.00 0.00 56 1012.4
20260505004636 25 180 0.0 4.8 0.00 0.00 0.00 57 1012.3
20260505004536 24 180 0.0 4.8 0.00 0.00 0.00 57 1012.4
20260505004436 24 225 0.0 4.8 0.00 0.00 0.00 58 1012.3
20260505004336 24 90 0.0 4.8 0.00 0.00 0.00 58 1012.4
20260505004236 24 0 0.0 4.8 0.00 0.00 0.00 58 1012.4
20260505004136 23 180 0.0 4.8 0.00 0.00 0.00 58 1012.4
20260505004036 23 180 0.0 4.8 0.00 0.00 0.00 58 1012.3
20260505003936 23 0 0.0 6.4 0.00 0.00 0.00 58 1012.4
20260505003836 23 0 0.0 6.4 0.00 0.00 0.00 58 1012.5
20260505003736 23 225 0.0 6.4 0.00 0.00 0.00 59 1012.4
20260505003636 23 0 0.0 6.4 0.00 0.00 0.00 59 1012.4
20260505003536 23 0 0.0 6.4 0.00 0.00 0.00 59 1012.4
20260505003436 23 0 0.0 6.4 0.00 0.00 0.00 59 1012.3
20260505003336 23 180 1.6 6.4 0.00 0.00 0.00 59 1012.3
20260505003236 23 0 1.6 6.4 0.00 0.00 0.00 59 1012.4
20260505003136 23 0 3.2 6.4 0.00 0.00 0.00 59 1012.3
20260505003036 23 0 3.2 6.4 0.00 0.00 0.00 58 1012.4
20260505002936 23 0 3.2 6.4 0.00 0.00 0.00 58 1012.5
20260505002836 23 0 1.6 6.4 0.00 0.00 0.00 58 1012.4
20260505002736 23 0 0.0 4.8 0.00 0.00 0.00 59 1012.4
20260505002636 23 180 0.0 4.8 0.00 0.00 0.00 59 1012.4
20260505002536 23 0 0.0 4.8 0.00 0.00 0.00 59 1012.4
20260505002436 23 0 1.6 4.8 0.00 0.00 0.00 59 1012.3
20260505002336 23 180 1.6 4.8 0.00 0.00 0.00 59 1012.3
20260505002236 23 180 1.6 4.8 0.00 0.00 0.00 60 1012.2
20260505002136 23 180 1.6 4.8 0.00 0.00 0.00 60 1012.3
20260505002036 23 180 1.6 4.8 0.00 0.00 0.00 61 1012.5
20260505001936 23 180 1.6 4.8 0.00 0.00 0.00 60 1012.3
20260505001836 23 180 0.0 4.8 0.00 0.00 0.00 60 1012.3
20260505001736 23 180 0.0 4.8 0.00 0.00 0.00 60 1012.4
20260505001636 23 180 0.0 4.8 0.00 0.00 0.00 61 1012.5
20260505001536 23 180 0.0 4.8 0.00 0.00 0.00 61 1012.3
20260505001436 23 0 0.0 4.8 0.00 0.00 0.00 61 1012.3
20260505001336 23 0 0.0 4.8 0.00 0.00 0.00 61 1012.4
20260505001236 23 180 0.0 4.8 0.00 0.00 0.00 61 1012.3
20260505001136 23 180 0.0 4.8 0.00 0.00 0.00 61 1012.5
20260505001036 22 0 0.0 4.8 0.00 0.00 0.00 62 1012.3
20260505000936 22 0 0.0 6.4 0.00 0.00 0.00 62 1012.4
20260505000836 22 180 0.0 6.4 0.00 0.00 0.00 62 1012.1
20260505000736 22 180 1.6 6.4 0.00 0.00 0.00 62 1012.3
20260505000636 22 0 1.6 6.4 0.00 0.00 0.00 62 1012.3
20260505000536 22 0 1.6 6.4 0.00 0.00 0.00 63 1012.2
20260505000436 22 180 1.6 6.4 0.00 0.00 0.00 63 1012.3
20260505000336 22 180 0.0 6.4 0.00 0.00 0.00 63 1012.2
20260505000236 22 180 0.0 6.4 0.00 0.00 0.00 63 1012.3
20260505000136 22 0 1.6 6.4 0.00 0.00 0.00 63 1012.2
20260505000036 22 180 1.6 6.4 0.00 0.00 0.00 63 1012.4
20260504235936 22 0 1.6 6.4 0.00 0.00 0.00 63 1012.1
20260504235836 22 0 1.6 6.4 0.00 0.00 0.00 63 1012.2
20260504235736 22 0 1.6 6.4 0.00 0.00 0.00 64 1012.1
20260504235636 22 225 0.0 4.8 0.00 0.00 0.00 64 1012.2
20260504235536 22 180 0.0 4.8 0.00 0.00 0.00 64 1012.1
20260504235435 22 180 0.0 4.8 0.00 0.00 0.00 65 1012.2
20260504235336 22 180 0.0 4.8 0.00 0.00 0.00 65 1012.2
20260504235236 22 180 0.0 4.8 0.00 0.00 0.00 66 1012.1
20260504235136 22 180 0.0 4.8 0.00 0.00 0.00 66 1012.2
20260504235036 22 0 0.0 4.8 0.00 0.00 0.00 66 1012.1
20260504234936 22 180 1.6 4.8 0.00 0.00 0.00 66 1012.2
20260504234835 22 0 1.6 4.8 0.00 0.00 0.00 66 1012.2
20260504234736 21 0 0.0 4.8 0.00 0.00 0.00 67 1012.1
20260504234636 21 180 0.0 4.8 0.00 0.00 0.00 67 1012.0
20260504234536 21 180 1.6 4.8 0.00 0.00 0.00 67 1012.1
20260504234436 21 180 0.0 4.8 0.00 0.00 0.00 67 1012.1
20260504234336 21 180 0.0 4.8 0.00 0.00 0.00 68 1012.0
20260504234236 21 0 0.0 4.8 0.00 0.00 0.00 68 1012.1
20260504234136 21 180 0.0 4.8 0.00 0.00 0.00 68 1012.1
20260504234036 21 180 0.0 4.8 0.00 0.00 0.00 69 1012.1
20260504233936 21 0 0.0 4.8 0.00 0.00 0.00 69 1012.0
20260504233836 21 180 1.6 4.8 0.00 0.00 0.00 69 1012.2
20260504233736 21 0 1.6 4.8 0.00 0.00 0.00 69 1012.0
20260504233636 21 180 0.0 4.8 0.00 0.00 0.00 69 1012.1
20260504233536 21 180 0.0 4.8 0.00 0.00 0.00 69 1012.0
20260504233436 21 0 1.6 4.8 0.00 0.00 0.00 69 1012.0
20260504233335 21 0 1.6 4.8 0.00 0.00 0.00 69 1012.0
20260504233235 21 180 0.0 4.8 0.00 0.00 0.00 70 1012.1
20260504233136 21 180 0.0 4.8 0.00 0.00 0.00 70 1012.0
20260504233036 21 180 1.6 4.8 0.00 0.00 0.00 70 1012.1
20260504232936 21 180 0.0 4.8 0.00 0.00 0.00 70 1012.0
20260504232835 21 0 1.6 4.8 0.00 0.00 0.00 70 1011.9
20260504232736 20 180 1.6 4.8 0.00 0.00 0.00 70 1012.0
20260504232636 20 180 0.0 4.8 0.00 0.00 0.00 70 1012.0
20260504232536 20 180 0.0 4.8 0.00 0.00 0.00 70 1011.9
20260504232436 20 180 0.0 4.8 0.00 0.00 0.00 70 1012.0
20260504232336 20 0 1.6 4.8 0.00 0.00 0.00 71 1011.9
20260504232236 20 180 0.0 4.8 0.00 0.00 0.00 71 1011.9
20260504232136 20 180 0.0 4.8 0.00 0.00 0.00 71 1011.9
20260504231936 20 180 0.0 4.8 0.00 0.00 0.00 72 1011.9
20260504231836 20 180 0.0 4.8 0.00 0.00 0.00 72 1011.8
20260504231736 20 0 0.0 4.8 0.00 0.00 0.00 72 1011.9
20260504231636 20 180 0.0 4.8 0.00 0.00 0.00 72 1011.9
20260504231536 20 0 0.0 4.8 0.00 0.00 0.00 72 1012.0
20260504231436 20 180 0.0 4.8 0.00 0.00 0.00 73 1011.9
20260504231336 20 180 0.0 4.8 0.00 0.00 0.00 73 1011.9
20260504231236 20 0 0.0 4.8 0.00 0.00 0.00 73 1012.0
20260504231136 20 0 0.0 4.8 0.00 0.00 0.00 73 1012.0
20260504231036 20 180 0.0 4.8 0.00 0.00 0.00 73 1011.9
20260504230936 20 180 0.0 4.8 0.00 0.00 0.00 73 1011.9
20260504230836 19 180 1.6 4.8 0.00 0.00 0.00 73 1011.9
20260504230736 19 180 1.6 4.8 0.00 0.00 0.00 73 1011.9
20260504230636 19 180 1.6 4.8 0.00 0.00 0.00 73 1011.9
20260504230536 19 0 1.6 4.8 0.00 0.00 0.00 73 1011.8
20260504230436 19 180 1.6 4.8 0.00 0.00 0.00 74 1011.8
20260504230336 19 180 1.6 4.8 0.00 0.00 0.00 74 1011.8
20260504230236 19 180 1.6 4.8 0.00 0.00 0.00 74 1011.8
20260504230136 19 180 1.6 6.4 0.00 0.00 0.00 74 1011.8
20260504230036 19 180 1.6 6.4 0.00 0.00 0.00 74 1011.8
20260504225936 19 180 1.6 6.4 0.00 0.00 0.00 74 1011.8
20260504225836 18 180 0.0 6.4 0.00 0.00 0.00 74 1011.7
20260504225735 18 180 0.0 6.4 0.00 0.00 0.00 74 1011.7
20260504225636 18 180 1.6 6.4 0.00 0.00 0.00 74 1011.8
20260504225536 18 180 1.6 6.4 0.00 0.00 0.00 74 1011.8
20260504225436 18 180 3.2 6.4 0.00 0.00 0.00 75 1011.7
20260504225335 18 180 3.2 6.4 0.00 0.00 0.00 75 1011.7
20260504225235 18 180 1.6 6.4 0.00 0.00 0.00 75 1011.7
20260504225135 18 180 1.6 6.4 0.00 0.00 0.00 75 1011.7
20260504225036 18 0 1.6 6.4 0.00 0.00 0.00 75 1011.7
20260504224936 18 180 1.6 6.4 0.00 0.00 0.00 75 1011.7
20260504224835 18 180 1.6 6.4 0.00 0.00 0.00 75 1011.7
20260504224735 18 180 3.2 6.4 0.00 0.00 0.00 75 1011.6
20260504224635 18 180 4.8 6.4 0.00 0.00 0.00 75 1011.7
20260504224536 18 180 3.2 6.4 0.00 0.00 0.00 75 1011.6
20260504224436 18 180 0.0 6.4 0.00 0.00 0.00 75 1011.6
20260504224335 18 180 0.0 6.4 0.00 0.00 0.00 76 1011.8
20260504224235 18 90 1.6 6.4 0.00 0.00 0.00 76 1011.7
20260504224135 18 0 1.6 6.4 0.00 0.00 0.00 76 1011.6
20260504224035 18 180 3.2 6.4 0.00 0.00 0.00 76 1011.6
20260504223936 18 180 1.6 6.4 0.00 0.00 0.00 76 1011.7
20260504223836 18 180 1.6 6.4 0.00 0.00 0.00 76 1011.6
20260504223735 18 180 1.6 6.4 0.00 0.00 0.00 76 1011.6
20260504223635 18 180 3.2 6.4 0.00 0.00 0.00 76 1011.6
20260504223535 18 180 3.2 6.4 0.00 0.00 0.00 76 1011.5
20260504223435 18 180 3.2 6.4 0.00 0.00 0.00 76 1011.6
20260504223336 18 180 1.6 6.4 0.00 0.00 0.00 76 1011.5
20260504223235 18 180 1.6 6.4 0.00 0.00 0.00 77 1011.6
20260504223135 17 180 3.2 6.4 0.00 0.00 0.00 77 1011.5
20260504223035 17 180 3.2 6.4 0.00 0.00 0.00 77 1011.4
20260504222935 17 180 1.6 4.8 0.00 0.00 0.00 77 1011.5
20260504222835 17 180 0.0 4.8 0.00 0.00 0.00 77 1011.5
20260504222736 17 180 0.0 4.8 0.00 0.00 0.00 77 1011.6
20260504222635 17 180 1.6 4.8 0.00 0.00 0.00 78 1011.5
20260504222535 17 0 0.0 4.8 0.00 0.00 0.00 78 1011.5
20260504222435 17 180 0.0 4.8 0.00 0.00 0.00 78 1011.6
20260504222335 17 180 0.0 4.8 0.00 0.00 0.00 78 1011.4
20260504222235 17 180 0.0 4.8 0.00 0.00 0.00 78 1011.6
20260504222136 17 180 1.6 4.8 0.00 0.00 0.00 78 1011.5
20260504222035 17 180 0.0 4.8 0.00 0.00 0.00 78 1011.5
20260504221935 17 90 0.0 4.8 0.00 0.00 0.00 78 1011.5
20260504221835 17 180 1.6 4.8 0.00 0.00 0.00 79 1011.6
20260504221735 17 180 0.0 4.8 0.00 0.00 0.00 79 1011.5
20260504221635 17 180 0.0 4.8 0.00 0.00 0.00 79 1011.3
20260504221535 17 180 0.0 4.8 0.00 0.00 0.00 79 1011.4
20260504221435 17 90 0.0 4.8 0.00 0.00 0.00 79 1011.4
20260504221335 17 180 1.6 4.8 0.00 0.00 0.00 79 1011.4
20260504221235 17 180 0.0 4.8 0.00 0.00 0.00 80 1011.6
20260504221135 17 180 0.0 4.8 0.00 0.00 0.00 80 1011.5
20260504221035 16 180 0.0 4.8 0.00 0.00 0.00 80 1011.3
20260504220935 16 180 0.0 4.8 0.00 0.00 0.00 80 1011.3
20260504220835 16 180 0.0 4.8 0.00 0.00 0.00 80 1011.3
20260504220735 16 180 0.0 4.8 0.00 0.00 0.00 80 1011.4
20260504220635 16 90 0.0 4.8 0.00 0.00 0.00 81 1011.4
20260504220535 16 0 0.0 4.8 0.00 0.00 0.00 81 1011.3
20260504220435 16 180 0.0 4.8 0.00 0.00 0.00 81 1011.5
20260504220336 16 180 0.0 4.8 0.00 0.00 0.00 81 1011.4
20260504220235 16 180 0.0 3.2 0.00 0.00 0.00 81 1011.5
20260504220135 16 180 0.0 3.2 0.00 0.00 0.00 81 1011.6
20260504220035 16 90 0.0 3.2 0.00 0.00 0.00 81 1011.6
20260504215935 16 180 0.0 1.6 0.00 0.00 0.00 81 1011.7
20260504215835 16 180 0.0 3.2 0.00 0.00 0.00 81 1011.6
20260504215735 16 180 0.0 3.2 0.00 0.00 0.00 81 1011.7
20260504215635 16 180 0.0 3.2 0.00 0.00 0.00 81 1011.7
20260504215535 16 180 0.0 3.2 0.00 0.00 0.00 81 1011.8
20260504215435 16 180 0.0 3.2 0.00 0.00 0.00 81 1011.7
20260504215335 16 180 0.0 3.2 0.00 0.00 0.00 81 1011.7
20260504215235 16 180 0.0 3.2 0.00 0.00 0.00 81 1011.8
20260504215135 16 180 0.0 3.2 0.00 0.00 0.00 81 1011.6
20260504215035 -17 116 46.7 0.0 0.00 0.00 0.00
20260504214935 16 180 0.0 4.8 0.00 0.00 0.00 81 1011.7
20260504214835 16 180 0.0 4.8 0.00 0.00 0.00 81 1011.7
20260504214735 16 180 0.0 4.8 0.00 0.00 0.00 81 1011.6
20260504214635 16 180 0.0 4.8 0.00 0.00 0.00 81 1011.5
20260504214535 16 0 0.0 4.8 0.00 0.00 0.00 81 1011.6
20260504214435 16 180 0.0 4.8 0.00 0.00 0.00 81 1011.6
20260504214335 16 0 0.0 4.8 0.00 0.00 0.00 81 1011.7
20260504214235 16 0 0.0 4.8 0.00 0.00 0.00 81 1011.6
20260504214136 16 0 0.0 4.8 0.00 0.00 0.00 81 1011.6
20260504214035 16 180 0.0 4.8 0.00 0.00 0.00 81 1011.6
20260504213935 16 0 0.0 4.8 0.00 0.00 0.00 81 1011.8
20260504213835 16 180 0.0 4.8 0.00 0.00 0.00 81 1011.6
20260504213735 16 180 0.0 4.8 0.00 0.00 0.00 81 1011.5
20260504213635 16 0 1.6 4.8 0.00 0.00 0.00 81 1011.5
20260504213535 15 180 0.0 4.8 0.00 0.00 0.00 81 1011.5
20260504213435 15 180 0.0 4.8 0.00 0.00 0.00 81 1011.7
20260504213336 15 180 0.0 4.8 0.00 0.00 0.00 81 1011.6
20260504213236 15 180 0.0 4.8 0.00 0.00 0.00 80 1011.5
20260504213135 15 180 0.0 4.8 0.00 0.00 0.00 80 1011.5
20260504213035 15 180 0.0 4.8 0.00 0.00 0.00 80 1011.8
20260504212935 15 180 0.0 4.8 0.00 0.00 0.00 80 1011.6
20260504212835 15 180 0.0 4.8 0.00 0.00 0.00 80 1011.5
20260504212735 15 180 1.6 4.8 0.00 0.00 0.00 80 1011.6
20260504212635 15 0 1.6 4.8 0.00 0.00 0.00 80 1011.6
20260504212535 15 180 1.6 4.8 0.00 0.00 0.00 80 1011.5
20260504212435 15 180 1.6 4.8 0.00 0.00 0.00 80 1011.5
20260504212336 15 180 1.6 4.8 0.00 0.00 0.00 80 1011.6
20260504212235 15 180 0.0 3.2 0.00 0.00 0.00 80 1011.5
20260504212135 15 180 0.0 0.0 0.00 0.00 0.00 80 1011.4
20260504212035 15 180 0.0 1.6 0.00 0.00 0.00 80 1011.6
20260504211935 15 0 0.0 3.2 0.00 0.00 0.00 80 1011.4
20260504211835 15 180 0.0 3.2 0.00 0.00 0.00 80 1011.4
20260504211735 15 180 0.0 3.2 0.00 0.00 0.00 80 1011.5
20260504211635 15 180 0.0 3.2 0.00 0.00 0.00 79 1011.6
20260504211535 15 180 0.0 4.8 0.00 0.00 0.00 79 1011.5
20260504211435 15 0 0.0 4.8 0.00 0.00 0.00 79 1011.6
20260504211335 15 180 0.0 4.8 0.00 0.00 0.00 79 1011.5
20260504211236 16 180 0.0 4.8 0.00 0.00 0.00 79 1011.5
20260504211135 15 0 0.0 4.8 0.00 0.00 0.00 79 1011.5
20260504211035 16 0 0.0 4.8 0.00 0.00 0.00 79 1011.4
20260504210935 16 180 0.0 4.8 0.00 0.00 0.00 79 1011.4
20260504210835 16 180 0.0 4.8 0.00 0.00 0.00 79 1011.5
20260504210735 16 0 0.0 4.8 0.00 0.00 0.00 79 1011.4
20260504210635 16 180 0.0 4.8 0.00 0.00 0.00 79 1011.5
20260504210535 16 180 0.0 4.8 0.00 0.00 0.00 79 1011.5
20260504210435 16 180 1.6 4.8 0.00 0.00 0.00 79 1011.4
20260504210335 16 180 0.0 4.8 0.00 0.00 0.00 78 1011.5
20260504210235 16 180 0.0 4.8 0.00 0.00 0.00 78 1011.3
20260504210135 16 180 0.0 4.8 0.00 0.00 0.00 78 1011.4
20260504210035 16 180 0.0 4.8 0.00 0.00 0.00 78 1011.3
20260504205935 16 180 0.0 4.8 0.00 0.00 0.00 78 1011.4
20260504205835 16 180 0.0 4.8 0.00 0.00 0.00 78 1011.4
20260504205735 16 180 0.0 4.8 0.00 0.00 0.00 78 1011.3
20260504205635 16 180 0.0 4.8 0.00 0.00 0.00 78 1011.3
20260504205535 16 180 0.0 4.8 0.00 0.00 0.00 78 1011.3
20260504205435 16 180 1.6 4.8 0.00 0.00 0.00 78 1011.4
20260504205335 16 180 1.6 4.8 0.00 0.00 0.00 78 1011.2
20260504205235 16 180 1.6 4.8 0.00 0.00 0.00 78 1011.3
20260504205135 16 180 1.6 4.8 0.00 0.00 0.00 78 1011.4
20260504205035 16 180 3.2 4.8 0.00 0.00 0.00 78 1011.4
20260504204935 16 180 1.6 4.8 0.00 0.00 0.00 78 1011.3
20260504204835 16 180 0.0 4.8 0.00 0.00 0.00 78 1011.4
20260504204735 16 0 0.0 4.8 0.00 0.00 0.00 77 1011.4
20260504204635 16 180 0.0 4.8 0.00 0.00 0.00 77 1011.4
20260504204535 16 180 0.0 4.8 0.00 0.00 0.00 77 1011.3
20260504204435 16 180 0.0 4.8 0.00 0.00 0.00 77 1011.4
20260504204335 16 180 0.0 4.8 0.00 0.00 0.00 77 1011.3
20260504204235 16 180 0.0 4.8 0.00 0.00 0.00 77 1011.4
20260504204135 16 180 1.6 4.8 0.00 0.00 0.00 77 1011.4
20260504204035 16 180 1.6 4.8 0.00 0.00 0.00 77 1011.4
20260504203935 16 180 0.0 1.6 0.00 0.00 0.00 77 1011.4
20260504203835 16 180 0.0 1.6 0.00 0.00 0.00 77 1011.5
20260504203735 16 0 0.0 0.0 0.00 0.00 0.00 77 1011.6
20260504203635 16 0 0.0 0.0 0.00 0.00 0.00 77 1011.4
20260504203535 16 0 0.0 0.0 0.00 0.00 0.00 76 1011.2
20260504203435 16 0 0.0 0.0 0.00 0.00 0.00 76 1011.2
20260504203335 16 180 0.0 0.0 0.00 0.00 0.00 76 1011.3
20260504203235 16 180 0.0 0.0 0.00 0.00 0.00 76 1011.4
20260504203135 16 180 0.0 0.0 0.00 0.00 0.00 76 1011.4
20260504203035 16 0 0.0 0.0 0.00 0.00 0.00 76 1011.2
20260504202935 16 0 0.0 0.0 0.00 0.00 0.00 76 1011.4
20260504202835 16 0 0.0 0.0 0.00 0.00 0.00 76 1011.3
20260504202735 16 0 0.0 0.0 0.00 0.00 0.00 76 1011.4
20260504202635 16 180 0.0 0.0 0.00 0.00 0.00 76 1011.2
20260504202535 16 180 0.0 0.0 0.00 0.00 0.00 76 1011.2
20260504202435 16 180 0.0 0.0 0.00 0.00 0.00 76 1011.3
20260504202335 16 180 0.0 0.0 0.00 0.00 0.00 76 1011.4
20260504202235 16 180 0.0 0.0 0.00 0.00 0.00 76 1011.3
20260504202135 16 0 0.0 0.0 0.00 0.00 0.00 76 1011.2
20260504202035 16 180 0.0 0.0 0.00 0.00 0.00 75 1011.2
20260504201934 -17 112 35.4 0.0 0.00 0.00 0.00
20260504201835 16 180 0.0 0.0 0.00 0.00 0.00 75 1011.2
20260504201735 16 180 0.0 0.0 0.00 0.00 0.00 75 1011.4
20260504201635 16 180 0.0 0.0 0.00 0.00 0.00 75 1011.4
20260504201535 16 180 0.0 0.0 0.00 0.00 0.00 75 1011.2
20260504201435 16 180 0.0 0.0 0.00 0.00 0.00 75 1011.3
20260504201335 16 0 0.0 0.0 0.00 0.00 0.00 75 1011.2
20260504201235 16 180 0.0 0.0 0.00 0.00 0.00 75 1011.1
20260504201135 16 180 0.0 0.0 0.00 0.00 0.00 75 1011.3
20260504201035 16 180 0.0 0.0 0.00 0.00 0.00 75 1011.4
20260504200935 16 0 0.0 0.0 0.00 0.00 0.00 74 1011.3
20260504200835 16 180 0.0 0.0 0.00 0.00 0.00 74 1011.2
20260504200735 16 180 0.0 3.2 0.00 0.00 0.00 74 1011.4
20260504200635 16 180 0.0 3.2 0.00 0.00 0.00 74 1011.3
20260504200534 16 180 0.0 4.8 0.00 0.00 0.00 74 1011.3
20260504200435 16 180 0.0 4.8 0.00 0.00 0.00 74 1011.2
20260504200335 16 180 0.0 4.8 0.00 0.00 0.00 74 1011.1
20260504200235 16 180 0.0 4.8 0.00 0.00 0.00 74 1011.2
20260504200135 16 180 0.0 4.8 0.00 0.00 0.00 74 1011.2
20260504200035 16 180 0.0 4.8 0.00 0.00 0.00 74 1011.2
20260504195935 16 180 0.0 4.8 0.00 0.00 0.00 74 1011.1
20260504195734 16 180 1.6 4.8 0.00 0.00 0.00 74 1011.3
20260504195634 16 180 1.6 4.8 0.00 0.00 0.00 74 1011.2
20260504195534 16 180 0.0 4.8 0.00 0.00 0.00 74 1011.4
20260504195435 16 180 0.0 4.8 0.00 0.00 0.00 74 1011.1
20260504195335 16 0 1.6 4.8 0.00 0.00 0.00 74 1011.1
20260504195235 16 180 1.6 4.8 0.00 0.00 0.00 74 1011.2
20260504195135 16 180 1.6 4.8 0.00 0.00 0.00 74 1011.3
20260504195035 16 180 1.6 4.8 0.00 0.00 0.00 74 1011.1
20260504194935 16 180 0.0 4.8 0.00 0.00 0.00 74 1011.2
20260504194834 16 180 0.0 4.8 0.00 0.00 0.00 74 1011.3
20260504194734 16 0 0.0 0.0 0.00 0.00 0.00 74 1011.3
20260504194634 16 0 0.0 0.0 0.00 0.00 0.00 74 1011.2
20260504194534 16 0 0.0 1.6 0.00 0.00 0.00 74 1011.2
20260504194434 16 180 0.0 1.6 0.00 0.00 0.00 73 1011.3
20260504194335 16 180 0.0 1.6 0.00 0.00 0.00 73 1011.2
20260504194235 16 180 0.0 1.6 0.00 0.00 0.00 73 1011.3
20260504194135 16 180 0.0 3.2 0.00 0.00 0.00 73 1011.1
20260504194035 16 0 0.0 3.2 0.00 0.00 0.00 73 1011.2
20260504193935 16 180 0.0 3.2 0.00 0.00 0.00 73 1011.1
20260504193834 16 180 0.0 4.8 0.00 0.00 0.00 73 1011.3
20260504193734 16 180 0.0 4.8 0.00 0.00 0.00 73 1011.2
20260504193634 16 0 0.0 4.8 0.00 0.00 0.00 73 1011.2
20260504193534 16 180 0.0 4.8 0.00 0.00 0.00 73 1011.2
20260504193434 16 180 0.0 4.8 0.00 0.00 0.00 73 1011.1
20260504193335 16 180 0.0 4.8 0.00 0.00 0.00 73 1011.1
20260504193235 16 180 0.0 4.8 0.00 0.00 0.00 73 1011.0
20260504193135 16 180 0.0 4.8 0.00 0.00 0.00 73 1011.1
20260504193035 16 180 0.0 4.8 0.00 0.00 0.00 73 1011.1
20260504192935 16 0 0.0 4.8 0.00 0.00 0.00 73 1011.2
20260504192834 16 180 0.0 4.8 0.00 0.00 0.00 73 1011.1
20260504192734 16 180 0.0 0.0 0.00 0.00 0.00 73 1011.1
20260504192634 16 180 0.0 1.6 0.00 0.00 0.00 73 1011.2
20260504192534 16 180 0.0 1.6 0.00 0.00 0.00 73 1011.1
20260504192434 16 180 0.0 1.6 0.00 0.00 0.00 73 1011.1
20260504192335 16 180 0.0 1.6 0.00 0.00 0.00 73 1011.1
20260504192235 16 180 0.0 1.6 0.00 0.00 0.00 73 1011.1
20260504192135 16 180 0.0 1.6 0.00 0.00 0.00 73 1011.1
20260504192034 16 180 0.0 1.6 0.00 0.00 0.00 73 1011.3
20260504191934 16 180 0.0 1.6 0.00 0.00 0.00 73 1011.2
20260504191834 16 0 0.0 1.6 0.00 0.00 0.00 73 1011.2
20260504191734 16 180 0.0 1.6 0.00 0.00 0.00 73 1011.0
20260504191634 16 180 0.0 0.0 0.00 0.00 0.00 73 1011.1
20260504191534 16 45 0.0 0.0 0.00 0.00 0.00 73 1011.3
20260504191434 16 0 0.0 0.0 0.00 0.00 0.00 73 1011.2
20260504191335 16 45 0.0 0.0 0.00 0.00 0.00 73 1011.2
20260504191235 16 45 0.0 0.0 0.00 0.00 0.00 73 1011.3
20260504191134 16 45 0.0 0.0 0.00 0.00 0.00 73 1011.2
20260504191034 16 0 0.0 0.0 0.00 0.00 0.00 73 1011.2
20260504190934 16 180 0.0 0.0 0.00 0.00 0.00 73 1011.2
20260504190834 16 45 0.0 0.0 0.00 0.00 0.00 73 1011.3
20260504190734 16 45 0.0 0.0 0.00 0.00 0.00 73 1011.3
20260504190634 16 45 0.0 0.0 0.00 0.00 0.00 73 1011.3
20260504190534 16 45 0.0 3.2 0.00 0.00 0.00 73 1011.4
20260504190434 16 45 0.0 3.2 0.00 0.00 0.00 72 1011.2
20260504190335 16 45 0.0 3.2 0.00 0.00 0.00 72 1011.3
20260504190235 16 0 0.0 3.2 0.00 0.00 0.00 72 1011.3
20260504190134 16 225 0.0 4.8 0.00 0.00 0.00 72 1011.2
20260504190034 16 0 4.8 0.0 0.00 0.00 0.00 72 1011.3
20260504185934 16 45 0.0 4.8 0.00 0.00 0.00 72 1011.3
20260504185834 16 45 0.0 4.8 0.00 0.00 0.00 72 1011.3
20260504185734 16 45 0.0 4.8 0.00 0.00 0.00 72 1011.3
20260504185634 16 45 0.0 4.8 0.00 0.00 0.00 72 1011.4
20260504185534 16 0 0.0 4.8 0.00 0.00 0.00 72 1011.4
20260504185434 16 45 0.0 4.8 0.00 0.00 0.00 72 1011.4
20260504185335 16 45 0.0 4.8 0.00 0.00 0.00 72 1011.4
20260504185234 16 45 1.6 4.8 0.00 0.00 0.00 72 1011.3
20260504185134 16 45 1.6 4.8 0.00 0.00 0.00 72 1011.4
20260504185034 16 45 1.6 4.8 0.00 0.00 0.00 72 1011.5
20260504184934 16 45 1.6 4.8 0.00 0.00 0.00 71 1011.4
20260504184834 17 45 1.6 4.8 0.00 0.00 0.00 71 1011.4
20260504184734 17 45 1.6 4.8 0.00 0.00 0.00 71 1011.4
20260504184634 17 45 1.6 4.8 0.00 0.00 0.00 71 1011.4
20260504184534 17 45 1.6 4.8 0.00 0.00 0.00 71 1011.6
20260504184434 17 45 1.6 4.8 0.00 0.00 0.00 71 1011.4
20260504184334 17 45 1.6 4.8 0.00 0.00 0.00 71 1011.5
20260504184234 17 45 1.6 4.8 0.00 0.00 0.00 71 1011.4
20260504184134 17 45 0.0 4.8 0.00 0.00 0.00 71 1011.5
20260504184034 17 45 0.0 3.2 0.00 0.00 0.00 71 1011.4
20260504183934 17 45 0.0 4.8 0.00 0.00 0.00 71 1011.4
20260504183834 17 45 0.0 4.8 0.00 0.00 0.00 71 1011.5
20260504183734 17 45 0.0 4.8 0.00 0.00 0.00 71 1011.4
20260504183634 17 0 0.0 4.8 0.00 0.00 0.00 71 1011.4
20260504183534 17 0 0.0 4.8 0.00 0.00 0.00 71 1011.4
20260504183434 17 45 0.0 4.8 0.00 0.00 0.00 71 1011.4
20260504183334 17 45 0.0 4.8 0.00 0.00 0.00 71 1011.3
20260504183234 17 225 0.0 4.8 0.00 0.00 0.00 71 1011.5
20260504183134 17 45 0.0 4.8 0.00 0.00 0.00 71 1011.5
20260504183034 16 45 0.0 4.8 0.00 0.00 0.00 71 1011.6
20260504182934 16 45 0.0 4.8 0.00 0.00 0.00 71 1011.6
20260504182834 16 0 0.0 4.8 0.00 0.00 0.00 71 1011.5
20260504182734 16 45 0.0 4.8 0.00 0.00 0.00 71 1011.6
20260504182634 16 45 0.0 4.8 0.00 0.00 0.00 71 1011.4
20260504182534 16 45 0.0 4.8 0.00 0.00 0.00 71 1011.5
20260504182434 16 0 1.6 4.8 0.00 0.00 0.00 71 1011.5
20260504182334 16 45 1.6 4.8 0.00 0.00 0.00 71 1011.4
20260504182234 16 45 1.6 4.8 0.00 0.00 0.00 71 1011.6
20260504182134 16 45 0.0 4.8 0.00 0.00 0.00 71 1011.6
20260504182034 16 45 0.0 1.6 0.00 0.00 0.00 71 1011.5
20260504181934 16 0 0.0 3.2 0.00 0.00 0.00 71 1011.5
20260504181834 16 45 0.0 3.2 0.00 0.00 0.00 71 1011.6
20260504181734 16 0 0.0 3.2 0.00 0.00 0.00 71 1011.6
20260504181634 16 45 0.0 3.2 0.00 0.00 0.00 71 1011.5
20260504181534 16 0 0.0 3.2 0.00 0.00 0.00 71 1011.6
20260504181434 16 0 0.0 3.2 0.00 0.00 0.00 71 1011.5
20260504181334 16 45 0.0 3.2 0.00 0.00 0.00 71 1011.5
20260504181234 16 45 0.0 3.2 0.00 0.00 0.00 71 1011.7
20260504181134 16 45 0.0 3.2 0.00 0.00 0.00 71 1011.5
20260504181034 16 0 0.0 3.2 0.00 0.00 0.00 71 1011.6
20260504180934 16 45 0.0 0.0 0.00 0.00 0.00 71 1011.6
20260504180834 16 45 0.0 0.0 0.00 0.00 0.00 71 1011.6
20260504180734 16 0 0.0 0.0 0.00 0.00 0.00 71 1011.7
20260504180634 16 0 0.0 0.0 0.00 0.00 0.00 71 1011.5
20260504180534 16 45 0.0 0.0 0.00 0.00 0.00 71 1011.7
20260504180434 16 45 0.0 0.0 0.00 0.00 0.00 71 1011.6
20260504180334 16 0 0.0 0.0 0.00 0.00 0.00 71 1011.7
20260504180234 16 0 0.0 0.0 0.00 0.00 0.00 71 1011.7
20260504180134 16 0 0.0 0.0 0.00 0.00 0.00 71 1011.5
20260504180034 16 0 0.0 1.6 0.00 0.00 0.00 71 1011.6
20260504175934 16 45 0.0 1.6 0.00 0.00 0.00 71 1011.7
20260504175834 16 0 0.0 1.6 0.00 0.00 0.00 71 1011.6
20260504175734 16 45 0.0 1.6 0.00 0.00 0.00 70 1011.7
20260504175634 16 45 0.0 1.6 0.00 0.00 0.00 70 1011.6
20260504175534 16 0 0.0 1.6 0.00 0.00 0.00 70 1011.6
20260504175434 16 0 0.0 1.6 0.00 0.00 0.00 70 1011.7
20260504175334 16 0 0.0 1.6 0.00 0.00 0.00 70 1011.7
20260504175234 16 0 0.0 1.6 0.00 0.00 0.00 70 1011.7
20260504175134 16 0 0.0 1.6 0.00 0.00 0.00 70 1011.6
20260504175034 16 45 0.0 0.0 0.00 0.00 0.00 70 1011.7
20260504174934 17 0 0.0 0.0 0.00 0.00 0.00 70 1011.7
20260504174834 17 0 0.0 0.0 0.00 0.00 0.00 70 1011.6
20260504174734 17 0 0.0 0.0 0.00 0.00 0.00 70 1011.8
20260504174634 17 0 0.0 0.0 0.00 0.00 0.00 70 1011.7
20260504174534 17 0 0.0 0.0 0.00 0.00 0.00 70 1011.8
20260504174334 17 0 0.0 0.0 0.00 0.00 0.00 69 1011.8
20260504174234 17 45 0.0 0.0 0.00 0.00 0.00 69 1011.9
20260504174134 17 0 0.0 3.2 0.00 0.00 0.00 69 1011.7
20260504174034 17 0 0.0 4.8 0.00 0.00 0.00 69 1011.7
20260504173934 17 0 0.0 4.8 0.00 0.00 0.00 69 1011.6
20260504173834 17 0 0.0 4.8 0.00 0.00 0.00 69 1011.7
20260504173734 17 0 0.0 4.8 0.00 0.00 0.00 69 1011.8
20260504173634 17 0 0.0 4.8 0.00 0.00 0.00 69 1011.7
20260504173534 17 45 0.0 4.8 0.00 0.00 0.00 69 1011.7
20260504173434 17 0 0.0 4.8 0.00 0.00 0.00 69 1011.7
20260504173334 17 0 0.0 4.8 0.00 0.00 0.00 69 1011.8
20260504173234 17 45 0.0 4.8 0.00 0.00 0.00 69 1011.6
20260504173134 17 45 0.0 4.8 0.00 0.00 0.00 69 1011.8
20260504173034 17 45 0.0 6.4 0.00 0.00 0.00 69 1011.7
20260504172934 17 45 1.6 6.4 0.00 0.00 0.00 69 1011.7
20260504172834 17 45 1.6 6.4 0.00 0.00 0.00 68 1011.7
20260504172734 17 45 1.6 6.4 0.00 0.00 0.00 68 1011.7
20260504172634 17 45 1.6 6.4 0.00 0.00 0.00 68 1011.7
20260504172534 17 0 0.0 6.4 0.00 0.00 0.00 68 1011.6
20260504172434 17 225 0.0 6.4 0.00 0.00 0.00 68 1011.7
20260504172334 17 45 1.6 6.4 0.00 0.00 0.00 68 1011.8
20260504172234 17 45 1.6 6.4 0.00 0.00 0.00 68 1011.6
20260504172134 17 45 1.6 6.4 0.00 0.00 0.00 68 1011.7
20260504172034 17 0 1.6 4.8 0.00 0.00 0.00 68 1011.7
20260504171934 17 0 1.6 4.8 0.00 0.00 0.00 68 1011.7
20260504171834 17 45 1.6 4.8 0.00 0.00 0.00 68 1011.7
20260504171734 17 0 0.0 4.8 0.00 0.00 0.00 68 1011.6
20260504171634 17 0 0.0 4.8 0.00 0.00 0.00 68 1011.9
20260504171534 17 0 1.6 4.8 0.00 0.00 0.00 68 1011.8
20260504171434 17 45 0.0 4.8 0.00 0.00 0.00 68 1011.8
20260504171334 17 45 0.0 4.8 0.00 0.00 0.00 68 1011.8
20260504171234 17 45 0.0 4.8 0.00 0.00 0.00 68 1011.8
20260504171134 17 45 0.0 4.8 0.00 0.00 0.00 68 1011.8
20260504171034 17 45 0.0 4.8 0.00 0.00 0.00 68 1011.8
20260504170934 17 0 0.0 4.8 0.00 0.00 0.00 68 1011.9
20260504170734 17 45 0.0 4.8 0.00 0.00 0.00 68 1011.9
20260504170634 17 45 0.0 4.8 0.00 0.00 0.00 67 1011.9
20260504170534 17 45 0.0 4.8 0.00 0.00 0.00 67 1011.9
20260504170434 17 45 0.0 4.8 0.00 0.00 0.00 67 1011.9
20260504170334 17 45 1.6 4.8 0.00 0.00 0.00 67 1011.9
20260504170233 17 45 1.6 4.8 0.00 0.00 0.00 67 1011.9
20260504170134 17 45 0.0 4.8 0.00 0.00 0.00 67 1012.0
20260504160434 18 45 0.0 4.8 0.00 0.00 0.00 64 1012.2
20260504160334 18 0 0.0 4.8 0.00 0.00 0.00 64 1012.1
20260504160234 18 45 0.0 4.8 0.00 0.00 0.00 64 1012.2
20260504160134 18 45 0.0 4.8 0.00 0.00 0.00 64 1012.3
20260504151133 18 45 0.0 4.8 0.00 0.00 0.00 62 1012.7
20260504151033 18 0 0.0 4.8 0.00 0.00 0.00 62 1012.8
20260504150933 18 45 0.0 4.8 0.00 0.00 0.00 62 1012.8
20260504150833 18 45 0.0 4.8 0.00 0.00 0.00 62 1012.9
20260504150734 18 45 0.0 4.8 0.00 0.00 0.00 62 1013.0
20260504150634 18 0 0.0 3.2 0.00 0.00 0.00 62 1012.9
20260504150534 18 0 0.0 3.2 0.00 0.00 0.00 62 1012.8
20260504150434 18 45 0.0 0.0 0.00 0.00 0.00 61 1013.0
20260504150333 18 45 0.0 0.0 0.00 0.00 0.00 61 1012.9
20260504150233 18 45 0.0 0.0 0.00 0.00 0.00 61 1012.9
20260504150133 18 45 0.0 0.0 0.00 0.00 0.00 61 1013.0
20260504141333 19 0 0.0 0.0 0.00 0.00 0.00 60 1013.1
20260504141233 19 45 0.0 0.0 0.00 0.00 0.00 60 1013.1
20260504141033 19 45 0.0 0.0 0.00 0.00 0.00 60 1013.0
20260504140933 19 45 0.0 1.6 0.00 0.00 0.00 60 1013.2
20260504140833 19 45 0.0 4.8 0.00 0.00 0.00 60 1013.1
20260504140733 19 45 0.0 4.8 0.00 0.00 0.00 60 1013.0
20260504140633 19 0 0.0 4.8 0.00 0.00 0.00 60 1013.1
20260504140533 19 45 0.0 4.8 0.00 0.00 0.00 60 1013.0
20260504140433 19 45 0.0 4.8 0.00 0.00 0.00 60 1013.1
20260504140333 19 45 0.0 4.8 0.00 0.00 0.00 60 1013.0
20260504140233 19 45 0.0 4.8 0.00 0.00 0.00 60 1013.1
20260504140133 19 45 0.0 4.8 0.00 0.00 0.00 61 1013.1
20260504130733 20 0 0.0 0.0 0.00 0.00 0.00 62 1013.4
20260504130633 20 45 0.0 0.0 0.00 0.00 0.00 62 1013.3
20260504130533 20 45 0.0 0.0 0.00 0.00 0.00 62 1013.3
20260504130432 20 45 0.0 0.0 0.00 0.00 0.00 62 1013.3
20260504130332 20 45 0.0 0.0 0.00 0.00 0.00 62 1013.4
20260504130233 20 0 0.0 0.0 0.00 0.00 0.00 62 1013.3
20260504130133 20 0 0.0 0.0 0.00 0.00 0.00 62 1013.5
20260504120232 21 0 1.6 4.8 0.00 0.00 0.00 54 1012.8
20260504120132 21 0 1.6 4.8 0.00 0.00 0.00 53 1012.8
20260504110632 22 0 0.0 0.0 0.00 0.00 0.00 50 1012.3
20260504110532 22 45 0.0 0.0 0.00 0.00 0.00 50 1012.3
20260504110432 22 45 0.0 0.0 0.00 0.00 0.00 49 1012.3
20260504110332 22 45 0.0 0.0 0.00 0.00 0.00 49 1012.3
20260504110232 22 45 0.0 0.0 0.00 0.00 0.00 49 1012.2
20260504110132 22 45 0.0 0.0 0.00 0.00 0.00 49 1012.3
20260504100532 25 0 0.0 3.2 0.00 0.00 0.00 45 1012.2
20260504100432 25 0 0.0 3.2 0.00 0.00 0.00 46 1012.2
20260504100331 25 225 0.0 3.2 0.00 0.00 0.00 46 1012.2
20260504100232 25 45 0.0 3.2 0.00 0.00 0.00 46 1012.3
20260504100132 25 45 0.0 3.2 0.00 0.00 0.00 46 1012.3
20260504090132 27 0 0.0 4.8 0.00 0.00 0.00 43 1012.2
20260504081931 27 90 0.0 6.4 0.00 0.00 0.00 41 1012.2
20260504081831 27 45 1.6 6.4 0.00 0.00 0.00 41 1012.2
20260504081731 27 90 1.6 6.4 0.00 0.00 0.00 41 1012.1
20260504081631 27 0 1.6 4.8 0.00 0.00 0.00 42 1012.3
20260504081531 27 45 1.6 4.8 0.00 0.00 0.00 41 1012.2
20260504081431 27 45 1.6 4.8 0.00 0.00 0.00 41 1012.1
20260504081331 27 0 1.6 4.8 0.00 0.00 0.00 42 1012.2
20260504081231 27 45 1.6 4.8 0.00 0.00 0.00 42 1012.2
20260504081131 27 45 1.6 4.8 0.00 0.00 0.00 42 1012.3
20260504081031 27 45 0.0 4.8 0.00 0.00 0.00 42 1012.2
20260504080931 27 90 0.0 4.8 0.00 0.00 0.00 42 1012.4
20260504080831 27 45 0.0 4.8 0.00 0.00 0.00 43 1012.3
20260504080731 27 90 0.0 4.8 0.00 0.00 0.00 43 1012.3
20260504080631 27 0 1.6 4.8 0.00 0.00 0.00 43 1012.1
20260504080531 27 315 1.6 6.4 0.00 0.00 0.00 43 1012.1
20260504080431 26 0 0.0 6.4 0.00 0.00 0.00 43 1012.2
20260504080331 26 0 0.0 6.4 0.00 0.00 0.00 43 1012.4
20260504080231 26 90 1.6 6.4 0.00 0.00 0.00 43 1012.2
20260504080131 26 90 1.6 6.4 0.00 0.00 0.00 42 1012.3
20260504070331 28 225 1.6 6.4 0.00 0.00 0.00 42 1012.6
20260504070230 28 0 1.6 6.4 0.00 0.00 0.00 42 1012.5
20260504070131 28 45 3.2 6.4 0.00 0.00 0.00 42 1012.6
20260504060231 28 45 0.0 8.0 0.00 0.00 0.00 43 1013.5
20260504060130 28 45 0.0 8.0 0.00 0.00 0.00 43 1013.4
20260504050730 27 0 1.6 8.0 0.00 0.00 0.00 45 1014.1
20260504050630 27 90 1.6 8.0 0.00 0.00 0.00 46 1014.2
20260504050530 27 45 3.2 8.0 0.00 0.00 0.00 47 1014.2
20260504050430 27 45 4.8 8.0 0.00 0.00 0.00 47 1014.1
20260504050330 27 90 3.2 8.0 0.00 0.00 0.00 46 1014.3
20260504050230 27 90 3.2 8.0 0.00 0.00 0.00 46 1014.1
20260504050130 27 90 1.6 8.0 0.00 0.00 0.00 46 1014.3
20260504045930 27 315 3.2 8.0 0.00 0.00 0.00 46 1014.1
20260504045830 27 315 3.2 8.0 0.00 0.00 0.00 46 1014.2
20260504045730 27 0 3.2 8.0 0.00 0.00 0.00 46 1014.3
20260504045630 27 90 3.2 9.7 0.00 0.00 0.00 46 1014.1
20260504045530 27 45 3.2 9.7 0.00 0.00 0.00 47 1014.2
20260504045430 27 45 3.2 9.7 0.00 0.00 0.00 46 1014.2
20260504045330 27 0 3.2 9.7 0.00 0.00 0.00 46 1014.2
20260504045230 27 0 3.2 9.7 0.00 0.00 0.00 47 1014.2
20260504045130 27 90 4.8 9.7 0.00 0.00 0.00 47 1014.2
20260504045030 27 45 4.8 9.7 0.00 0.00 0.00 47 1014.1
20260504044930 27 45 3.2 9.7 0.00 0.00 0.00 47 1014.2
20260504044830 27 90 4.8 9.7 0.00 0.00 0.00 47 1014.3
20260504044730 27 45 3.2 9.7 0.00 0.00 0.00 47 1014.3
20260504044630 27 45 1.6 8.0 0.00 0.00 0.00 47 1014.2
20260504044530 27 90 3.2 8.0 0.00 0.00 0.00 47 1014.2
20260504044430 27 45 1.6 8.0 0.00 0.00 0.00 48 1014.2
20260504044330 26 45 1.6 8.0 0.00 0.00 0.00 48 1014.3
20260504044230 26 0 3.2 8.0 0.00 0.00 0.00 48 1014.3
20260504044130 26 45 3.2 8.0 0.00 0.00 0.00 49 1014.3
20260504044030 26 45 1.6 8.0 0.00 0.00 0.00 47 1014.2
20260504043930 26 45 1.6 8.0 0.00 0.00 0.00 48 1014.3
20260504043830 26 90 3.2 8.0 0.00 0.00 0.00 48 1014.4
20260504043730 26 45 1.6 8.0 0.00 0.00 0.00 48 1014.2
20260504043630 26 90 0.0 8.0 0.00 0.00 0.00 48 1014.3
20260504043530 26 45 1.6 8.0 0.00 0.00 0.00 48 1014.4
20260504043430 26 90 3.2 8.0 0.00 0.00 0.00 48 1014.3
20260504043330 26 45 1.6 8.0 0.00 0.00 0.00 48 1014.4
20260504043230 26 90 1.6 8.0 0.00 0.00 0.00 48 1014.3
20260504043130 26 225 1.6 8.0 0.00 0.00 0.00 47 1014.3
20260504043030 26 45 0.0 9.7 0.00 0.00 0.00 47 1014.4
20260504042930 26 90 1.6 9.7 0.00 0.00 0.00 48 1014.3
20260504042830 26 45 3.2 9.7 0.00 0.00 0.00 48 1014.3
20260504042730 26 90 3.2 9.7 0.00 0.00 0.00 48 1014.2
20260504042630 26 45 4.8 9.7 0.00 0.00 0.00 48 1014.2
20260504042530 26 45 4.8 9.7 0.00 0.00 0.00 48 1014.4
20260504042430 26 45 4.8 9.7 0.00 0.00 0.00 48 1014.3
20260504042330 26 45 4.8 9.7 0.00 0.00 0.00 48 1014.4
20260504042230 26 45 3.2 9.7 0.00 0.00 0.00 48 1014.4
20260504042130 26 45 3.2 9.7 0.00 0.00 0.00 48 1014.4
20260504042030 26 45 1.6 9.7 0.00 0.00 0.00 48 1014.4
20260504041930 26 45 1.6 9.7 0.00 0.00 0.00 48 1014.4
20260504041830 26 45 3.2 9.7 0.00 0.00 0.00 48 1014.4
20260504041730 26 45 3.2 9.7 0.00 0.00 0.00 48 1014.3
20260504041630 26 45 3.2 9.7 0.00 0.00 0.00 48 1014.4
20260504041530 26 90 3.2 9.7 0.00 0.00 0.00 47 1014.4
20260504041430 26 0 1.6 9.7 0.00 0.00 0.00 47 1014.5
20260504041330 26 90 1.6 9.7 0.00 0.00 0.00 47 1014.4
20260504041230 26 225 3.2 9.7 0.00 0.00 0.00 47 1014.3
20260504041130 26 45 4.8 9.7 0.00 0.00 0.00 47 1014.4
20260504041030 26 0 3.2 8.0 0.00 0.00 0.00 46 1014.4
20260504040930 26 0 3.2 8.0 0.00 0.00 0.00 47 1014.5
20260504040830 26 45 3.2 8.0 0.00 0.00 0.00 47 1014.5
20260504040730 26 45 3.2 8.0 0.00 0.00 0.00 47 1014.5
20260504040630 26 45 1.6 8.0 0.00 0.00 0.00 47 1014.6
20260504040530 26 0 0.0 8.0 0.00 0.00 0.00 47 1014.5
20260504040430 26 90 0.0 6.4 0.00 0.00 0.00 47 1014.6
20260504040330 26 90 0.0 6.4 0.00 0.00 0.00 47 1014.6
20260504040230 26 1 6.4 0.0 0.00 0.00 0.00 47 1014.6
20260504040030 26 90 3.2 6.4 0.00 0.00 0.00 47 1014.7
20260504035930 26 45 1.6 6.4 0.00 0.00 0.00 47 1014.5
20260504035830 26 90 0.0 6.4 0.00 0.00 0.00 47 1014.6
20260504035730 26 45 3.2 6.4 0.00 0.00 0.00 47 1014.8
20260504035630 26 90 3.2 6.4 0.00 0.00 0.00 47 1014.7
20260504035530 26 90 3.2 6.4 0.00 0.00 0.00 47 1014.6
20260504035430 26 45 3.2 6.4 0.00 0.00 0.00 46 1014.8
20260504035330 26 0 1.6 4.8 0.00 0.00 0.00 46 1014.6
20260504035230 26 45 0.0 6.4 0.00 0.00 0.00 47 1014.7
20260504035130 26 0 0.0 6.4 0.00 0.00 0.00 47 1014.7
20260504035030 26 90 0.0 6.4 0.00 0.00 0.00 47 1014.8
20260504034930 26 45 0.0 6.4 0.00 0.00 0.00 46 1014.7
20260504034830 26 90 0.0 6.4 0.00 0.00 0.00 46 1014.7
20260504034730 26 315 0.0 6.4 0.00 0.00 0.00 46 1014.8
20260504034630 26 0 0.0 6.4 0.00 0.00 0.00 44 1014.7
20260504034530 27 90 0.0 6.4 0.00 0.00 0.00 45 1014.7
20260504034430 27 45 0.0 6.4 0.00 0.00 0.00 46 1014.7
20260504034330 27 90 1.6 6.4 0.00 0.00 0.00 46 1014.8
20260504034229 27 45 1.6 6.4 0.00 0.00 0.00 47 1014.9
20260504034130 27 90 3.2 6.4 0.00 0.00 0.00 47 1014.8
20260504034030 27 45 3.2 6.4 0.00 0.00 0.00 47 1014.9
20260504033930 27 45 3.2 6.4 0.00 0.00 0.00 46 1014.9
20260504033830 27 45 1.6 6.4 0.00 0.00 0.00 47 1015.0
20260504033730 26 45 0.0 6.4 0.00 0.00 0.00 47 1014.9
20260504033630 26 45 0.0 6.4 0.00 0.00 0.00 48 1015.0
20260504033530 26 45 1.6 6.4 0.00 0.00 0.00 48 1014.9
20260504033430 26 90 0.0 8.0 0.00 0.00 0.00 48 1014.9
20260504033330 26 45 0.0 8.0 0.00 0.00 0.00 49 1015.0
20260504033230 26 45 0.0 8.0 0.00 0.00 0.00 49 1015.0
20260504033130 26 45 0.0 8.0 0.00 0.00 0.00 48 1015.0
20260504033030 26 45 1.6 8.0 0.00 0.00 0.00 49 1014.9
20260504032930 26 45 1.6 8.0 0.00 0.00 0.00 49 1015.0
20260504032830 25 45 1.6 8.0 0.00 0.00 0.00 50 1015.1